Laon - Chambry Airport


Codes: LFAF/XLN
Name: Laon - Chambry Airport
City: Calais-Dunkerque
Country: France
Elevation: 256 ft.

Photos at Laon - Chambry Airport


   Photos courtesy of SpottingLog. You can add your own sightings and photos by signing up for a free trial today.



No photos found.

Weather at Laon - Chambry Airport


Time (UTC)DescriptionTempratureWindCloud coverageVisibilityPressureHumidity
21-Feb-2024 03:00Overcast Clouds5°C7 mph, S100%10000m1025hPa92%
21-Feb-2024 06:00Overcast Clouds6°C9 mph, S100%10000m1023hPa92%
21-Feb-2024 09:00Overcast Clouds7°C11 mph, S100%10000m1020hPa87%
21-Feb-2024 12:00Overcast Clouds10°C16 mph, S100%10000m1016hPa81%
21-Feb-2024 15:00Light Rain9°C20 mph, SW100%10000m1011hPa86%
21-Feb-2024 18:00Moderate Rain9°C22 mph, SW100%9697m1009hPa91%
21-Feb-2024 21:00Light Rain9°C20 mph, SW100%10000m1007hPa92%
22-Feb-2024 00:00Light Rain9°C13 mph, SW100%8246m1005hPa95%
22-Feb-2024 03:00Moderate Rain10°C13 mph, SW100%8824m1001hPa95%
22-Feb-2024 06:00Light Rain11°C16 mph, SW100%10000m998hPa95%
22-Feb-2024 09:00Light Rain12°C18 mph, SW100%10000m996hPa93%
22-Feb-2024 12:00Light Rain11°C25 mph, SW100%10000m991hPa90%
22-Feb-2024 15:00Light Rain11°C27 mph, SW100%10000m987hPa87%
22-Feb-2024 18:00Light Rain7°C20 mph, W89%10000m992hPa80%
22-Feb-2024 21:00Light Rain5°C18 mph, W80%10000m996hPa85%
23-Feb-2024 00:00Broken Clouds4°C18 mph, SW55%10000m999hPa79%
23-Feb-2024 03:00Clear Sky3°C16 mph, SW6%10000m998hPa85%
23-Feb-2024 06:00Scattered Clouds4°C18 mph, SW29%10000m997hPa83%
23-Feb-2024 09:00Overcast Clouds5°C16 mph, SW96%10000m997hPa80%
23-Feb-2024 12:00Overcast Clouds7°C16 mph, SW88%10000m996hPa72%
23-Feb-2024 15:00Light Rain9°C13 mph, S66%10000m994hPa65%
23-Feb-2024 18:00Light Rain5°C11 mph, S59%10000m994hPa84%
23-Feb-2024 21:00Light Rain5°C13 mph, SW100%10000m994hPa87%
24-Feb-2024 00:00Overcast Clouds3°C13 mph, SW91%10000m994hPa89%
24-Feb-2024 03:00Broken Clouds2°C11 mph, S52%10000m995hPa92%
24-Feb-2024 06:00Broken Clouds3°C13 mph, SW74%10000m997hPa79%
24-Feb-2024 09:00Broken Clouds4°C16 mph, S65%10000m998hPa79%
24-Feb-2024 12:00Broken Clouds5°C16 mph, S73%10000m999hPa74%
24-Feb-2024 15:00Overcast Clouds6°C16 mph, S98%10000m999hPa71%
24-Feb-2024 18:00Overcast Clouds5°C16 mph, S93%10000m999hPa78%
24-Feb-2024 21:00Light Rain5°C16 mph, S100%2754m999hPa95%
25-Feb-2024 00:00Light Rain5°C13 mph, SW100%10000m1000hPa86%
25-Feb-2024 03:00Overcast Clouds4°C11 mph, SW90%10000m1002hPa83%
25-Feb-2024 06:00Overcast Clouds5°C9 mph, SW92%10000m1003hPa79%
25-Feb-2024 09:00Overcast Clouds5°C11 mph, S99%10000m1004hPa83%
25-Feb-2024 12:00Overcast Clouds7°C16 mph, S100%10000m1003hPa76%
25-Feb-2024 15:00Overcast Clouds7°C13 mph, SE100%10000m1000hPa76%
25-Feb-2024 18:00Light Rain6°C16 mph, SE100%10000m998hPa80%
25-Feb-2024 21:00Light Rain5°C20 mph, SE100%10000m996hPa92%
26-Feb-2024 00:00Moderate Rain6°C16 mph, SE100%10000m994hPa94%